Lid_Strength_Index
11 12 12 12 13 13 13 13 12 12 12 13 14 13 13 14 14 14 14 15 15 16
12 12 13 13 13 14 13 13 13 12 13 13 13 13 13 14 15 15 15 15 15 16
13 13 14 14 14 15 14 14 13 13 13 13 13 13 14 15 15 15 15 15 16 16
15 15 14 15 15 15 15 14 14 14 14 14 14 14 15 15 15 15 15 15 16 16
16 16 16 16 16 15 15 15 14 14 14 14 14 14 15 15 15 16 16 15 16 16
17 17 17 17 16 15 15 15 15 14 15 15 15 15 14 14 15 15 15 16 16 17
17 17 17 17 17 16 15 15 15 15 15 15 14 14 14 13 13 13 13 14 15 16
17 17 17 17 16 16 15 15 15 15 14 14 14 14 14 14 14 15 15 15 15 15
17 17 17 17 17 16 15 15 15 14 14 14 13 11 11 13 14 14 15 15 15 15
16 16 16 16 16 16 16 15 15 15 14 15 14 10 10 11 14 14 15 14 14 14
17 16 16 16 16 16 16 16 16 16 16 16 14 10 10 10 14 15 14 14 14 13
17 17 17 17 17 17 16 17 16 15 16 16 15 10 10 10 12 14 14 13 13 12
18 18 18 17 17 16 16 16 14 14 16 14 16 11 10 10 13 17 13 13 12 9
20 19 18 19 17 18 18 17 17 16 16 16 15 15 10 9 13 15 16 11 11 11